Regional Weather Roundup
Issued by NWS

Home | Current Version | Previous Version | Graphics & Text | Print | Product List | Glossary On
Versions: 1 2 3 4 5 6 7 8 9 10 11 12 13 14 15 16 17 18 19 20 21 22 23 24 25 26 27 28 29 30 31 32 33 34 35 36 37 38 39 40 41 42 43 44 45 46 47 48 49 50
508
ASUS45 KTFX 081910
RWRMT
MONTANA REGIONAL WEATHER ROUNDUP
NATIONAL WEATHER SERVICE GREAT FALLS MT
1200 PM MST MON FEB 08 2016

NOTE: "FAIR" INDICATES FEW OR NO CLOUDS BELOW 12000 FEET WITH NO
SIGNIFICANT WEATHER AND/OR OBSTRUCTIONS TO VISIBILITY.

MTZ001>007-043-082000-
WEST OF THE DIVIDE

CITY           SKY/WX    TMP DP  RH WIND       PRES   REMARKS
KALISPELL      CLOUDY    37  29  72 CALM      30.61F
MISSOULA       CLOUDY    35  27  72 CALM      30.64S
BUTTE          CLOUDY    35  24  64 CALM      30.57F
MULLAN PASS    MOSUNNY   38  30  73 S5        30.57S
ANACONDA         N/A     46  27  46 N10       30.57S
DEER LODGE       N/A     39  27  60 CALM      30.60R
HAMILTON         N/A     43  25  49 CALM      30.60S
LIBBY            N/A     41  27  56 CALM        N/A
PLAINS           N/A     39  27  62 CALM      30.58F
$$

MTZ008-052>055-082000-
SOUTHWEST MONTANA

CITY           SKY/WX    TMP DP  RH WIND       PRES   REMARKS
BOZEMAN        CLOUDY    33  26  75 CALM      30.54F
DILLON         CLOUDY    36  27  69 CALM      30.56F
ENNIS          SUNNY     41  25  52 S15       30.62F
TWIN BRIDGES     N/A     35  24  64 CALM      30.49F
$$

MTZ009-010-012-014-046-048-049-054-082000-
EAST SLOPES AND CENTRAL MONTANA

CITY           SKY/WX    TMP DP  RH WIND       PRES   REMARKS
CUT BANK       SUNNY     54  28  36 W29       30.35F
GREAT FALLS    CLOUDY    55  26  32 SW18      30.38F
MALMSTROM AFB  CLOUDY    54  26  34 SW21G26   30.39F
HELENA         CLOUDY    40  27  59 NE7       30.52F
CHOTEAU          N/A     57  28  33 W20G30    30.39S
CONRAD           N/A     59  30  33 W15       30.34F
$$

MTZ011-013-016-021-045-047-050-051-082000-
NORTH CENTRAL MONTANA

CITY           SKY/WX    TMP DP  RH WIND       PRES   REMARKS
HAVRE          SUNNY     48  28  46 SW17      30.34F
LEWISTOWN      SUNNY     47  28  47 NW9       30.39F
N BAR RANCH      N/A     50  25  37 NW30G39   30.37F
CHINOOK          N/A     43  25  49 SW3       30.33F
$$

MTZ017>020-022>027-061-062-082000-
NORTHEAST MONTANA

CITY           SKY/WX    TMP DP  RH WIND       PRES   REMARKS
GLASGOW        CLOUDY    32  17  54 CALM      30.35F
JORDAN           N/A     41  21  44 W8        30.35F
SIDNEY         CLOUDY    36  16  44 NW13      30.35F WCI  27
WOLF POINT     CLOUDY    35  20  54 SW8       30.36F WCI  29
PLENTYWOOD       N/A     30  19  64 W12       30.31F WCI  21
POPLAR           N/A     30  19  64 W6        30.37F WCI  24
SCOBEY           N/A     32  13  45 W2        30.28F
$$

MTZ028>42-056>058-082000-
SOUTHCENTRAL AND SOUTHEAST MONTANA

CITY           SKY/WX    TMP DP  RH WIND       PRES   REMARKS
BAKER          CLOUDY    35  11  36 NW15      30.34F WCI  25
BILLINGS       MOSUNNY   49  21  33 SW9G22    30.38F
LIVINGSTON     CLOUDY    51  27  39 W24       30.47F
MILES CITY     CLOUDY    43  16  33 W13G18    30.36F
EKALAKA          N/A     34   5  29 W13       30.27F WCI  25
FORSYTH          N/A     39  19  45 W8        30.38F
LAUREL           N/A     48  19  31 SW14      30.33F
ROUNDUP          N/A     55  21  26 W9        30.24F
$$

REGIONAL REPORTS...DAKOTAS

CITY           SKY/WX    TMP DP  RH WIND       PRES   REMARKS
WILLISTON      MOSUNNY   34  19  54 NW14      30.33F WCI  25
MINOT          MOSUNNY   32  10  40 NW22G30   30.26F WCI  19
DICKINSON      CLOUDY    35  13  40 NW22G31   30.27S WCI  23
BEACH          CLOUDY    32  14  47 W15       30.35F WCI  22
CROSBY           N/A     28  19  69 N9        30.34F WCI  20
TIOGA            N/A     25  23  93 NW14      30.35F WCI  13
WATFORD CITY     N/A     32  16  51 NW15G23   30.31F WCI  22
BISMARCK       MOSUNNY   35  17  47 N22G30    30.27S WCI  23
GRAND FORKS    SNOW      14   7  73 N30G38    30.21R VSB 1/2 WCI  -7
FARGO          LGT SNOW  15   9  76 N22       30.18S VSB 3/4 WCI  -3
BUFFALO SD       N/A     36  10  34 NW23G31   30.24F WCI  24
RAPID CITY     CLOUDY    40   4  22 NW29G37   30.29F
$$

REGIONAL REPORTS...WYOMING/IDAHO/WASHINGTON

CITY           SKY/WX    TMP DP  RH WIND       PRES   REMARKS
GILLETTE       MOSUNNY   38  19  46 NW16      30.34F WCI  29
SHERIDAN       CLOUDY    47  27  45 NW21      30.35F
BUFFALO WY     CLOUDY   N/A N/A N/A MISG      30.36F
CODY           SUNNY     48  25  40 N5        30.41F
YELLOWSTONE LA   N/A     28  16  60 E3        30.61F
IDAHO FALLS    CLOUDY    26  24  92 N6        30.72F FOG     WCI  19
SALMON         CLOUDY    30  19  64 CALM      30.72F
BOISE          SUNNY     40  33  76 SE14      30.72S
SPOKANE        PTSUNNY   38  30  73 NE6       30.61F
$$

REGIONAL REPORTS...ALBERTA

CITY           SKY/WX    TMP DP  RH WIND       PRES   REMARKS
CALGARY        PTSUNNY   54  25  32 W17G25    30.27F
LETHBRIDGE     MOSUNNY   54  30  40 W32G41    30.32F
MEDICINE HAT   PTSUNNY   50  30  46 SW9       30.31F
WATERTON GATE    N/A     48  27  43 SW31G49     N/A
CARDSTON         N/A     54  28  37 W22G33      N/A
MILK RIVER       N/A     55  30  38 W23G31      N/A
ONEFOUR          N/A     48  28  46 NW21        N/A
$$

REGIONAL REPORTS...SASKATCHEWAN

CITY           SKY/WX    TMP DP  RH WIND       PRES   REMARKS
SWIFT CURRENT  CLOUDY    36  16  44 SW5       30.27F
REGINA         CLOUDY    25  18  74 W3        30.33S
SASKATOON      PTSUNNY   27  18  69 S6        30.31F WCI  20
CYPRESS HILLS    N/A     46  19  34 NW9G17      N/A
VAL MARIE        N/A     39  16  38 W9          N/A
ROCKGLEN         N/A     34  16  47 NW7         N/A  WCI  28
$$




USA.gov is the U.S. government's official web portal to all federal, state and local government web resources and services.